Location: Unspecified
(33.6682°S, 0.0000°E)
Time: 11:31:42
(UTC+00:00)

Tiros 1 despin weight - Pass Details

Date: 23 June 2019
Orbit: 594 x 643 km, 48.2° (Epoch: 22 July)

Event Time Altitude Azimuth Distance (km) Brightness Sun altitude
Rises 08:43:25 0° 342° (NNW) 2,877 ? 15.9°
Reaches altitude 10° 08:46:04 10° 357° (N) 1,988 ? 16.3°
Maximum altitude 08:49:41 23° 49° (NE) 1,342 ? 16.8°
Drops below altitude 10° 08:53:22 10° 101° (E) 2,029 ? 17.4°
Sets 08:56:05 0° 115° (ESE) 2,951 ? 17.8°
